Regional Weather Roundup
Issued by NWS State College, PA

Home | Current Version | Previous Version | Text Only | Print | Product List | Glossary Off
Versions: 1 2 3 4 5 6 7 8 9 10 11 12 13 14 15 16 17 18 19 20 21 22 23 24 25 26 27 28 29 30 31 32 33 34 35 36 37 38 39 40 41 42 43 44 45 46 47 48 49 50

000
ASUS41 KCTP 212203
RWRCTP

REGIONAL WEATHER ROUNDUP
NATIONAL WEATHER SERVICE STATE COLLEGE PA
500 PM EST SAT JAN 21 2017

Note: "fair" indicates few or no clouds below 12,000 feet with no
significant weather and/or obstructions to visibility.

* = STATION THAT DOES NOT REPORT PRECIPITATION /E.G. RAIN...SNOW...ETC/
    THUNDER OR FOG.

PAZ002>004-007>009-013>016-020>023-029>032-212300-
WESTERN PENNSYLVANIA

CITY           SKY/WX    TMP DP  RH WIND       PRES   REMARKS
ERIE           CLOUDY    62  50  64 S8        29.66S
MEADVILLE      PTCLDY    57  48  72 S5        29.69R
FRANKLIN*        N/A     57  48  72 SW5       29.71R
NEW CASTLE     FAIR      60  51  72 CALM      29.69S
BEAVER COUNTY  CLEAR     59  50  72 SW5       29.69R
BUTLER*        MOCLDY    61  48  63 SW8       29.72S
PITTSBURGH INT CLOUDY    62  50  64 SW7       29.69R
PITTSBURGH     CLOUDY    61  47  59 S5        29.69R
INDIANA*       CLEAR     61  50  67 SW7       29.73R
LATROBE        MOCLDY    61  48  63 SW7       29.71S
WASHINGTON CO* PTCLDY    61  48  63 SW3       29.70S
$$

PAZ004>006-010>012-017>019-024>028-033>037-041-042-045-046-049>053-212300-
CENTRAL PENNSYLVANIA

CITY           SKY/WX    TMP DP  RH WIND       PRES   REMARKS
BRADFORD       CLOUDY    54  49  83 SE3       29.70F
DUBOIS         PTCLDY    59  46  62 S3        29.69F
CLEARFIELD     PTCLDY    50  49  96 NE5       29.72S
JOHNSTOWN      CLOUDY    58  46  64 S6        29.71F
ALTOONA        FOG       45  44  97 NE6       29.75S VSB<1/4
STATE COLLEGE  FOG       43  43 100 E5        29.76F VSB 1/16
WILLIAMSPORT   CLOUDY    44  42  93 E5        29.78F FOG
SELINSGROVE    CLOUDY    43  41  93 S3        29.80F FOG
FT INDIANTOWN  CLOUDY    43  43 100 CALM      29.81S
CAPITAL CITY   FOG       46  44  93 CALM      29.80F VSB 1/8
HARRISBURG     DRZL/FOG  46  46 100 CALM      29.80F VSB 1/4
YORK           CLOUDY    48  48 100 CALM      29.80S FOG
$$

PAZ038>040-043-044-047-048-054-055-060>062-067>071-212300-
EASTERN PENNSYLVANIA

CITY           SKY/WX    TMP DP  RH WIND       PRES   REMARKS
SCRANTON       CLOUDY    46  46 100 VRB3      29.79S FOG
MOUNT POCONO   CLEAR     51  44  77 W5        29.78S
ALLENTOWN      FOG       46  43  89 W3        29.81F VSB 1/2
QUAKERTOWN*    CLOUDY    45  45 100 CALM      29.82F VSB<1/4
READING        FOG       45  45 100 CALM      29.80F VSB 1/2
LANCASTER      FOG       45  45 100 NE3       29.80F VSB 1/2
COATESVILLE    FOG       45  45 100 CALM      29.82S VSB<1/4
POTTSTOWN      CLOUDY    45  44  97 CALM      29.83F FOG
BLUE BELL      CLOUDY    45  45 100 CALM      29.81S
DOYLESTOWN     FOG       46  45  96 SW3       29.81S VSB 3/4
WILLOW GROVE   NOT AVBL
NORTH PHILA    CLOUDY    47  45  93 SW3       29.84F FOG
PHILADELPHIA   FOG       46  45  96 SW6       29.84S VSB 1/4
$$




USA.gov is the U.S. government's official web portal to all federal, state and local government web resources and services.